[[{"header":{"parameterUnit":"m.s-1","parameterCategory":2,"la1":30.2991,"la2":30.254,"lo1":-89.0895,"lo2":-89.0444,"dy":0.0017,"dx":0.0017,"nx":28,"ny":28,"refTime":"2023-09-07T03:00:00:Z","depth":"0","parameterNumber":2,"parameterNumberName":"U-component_of_CURRENTS"},"data":[0,0,0,0,0,0,0,0,0,0,0,0,0,0,0,0,0,0,0,0,0,0,0,0,0,0,0,0,0,0,0,0,0,0,0,0,0,0,0,0,0,0,0,0,0,0,0,0,0,0,0,0,0,0,0,0,0,0,0.394,0.3941,0,0.4005,0.4005,0.4005,0.3986,0.3986,0.3985,0.3985,0.4094,0.4097,0.4101,0,0,0,0,0,0,0,0,0,0,0,0,0,0.3787,0.3789,0.394,0.3942,0.3943,0.4005,0.4005,0.4005,0.3986,0.3986,0.3985,0.3985,0.4093,0.4097,0.4101,0,0,0,0,0,0,0,0,0,0,0,0,0,0.3843,0.379,0.394,0.3949,0.3951,0.4005,0.4005,0.4005,0.3986,0.3986,0.3985,0.3985,0.4092,0.4097,0.4101,0.4144,0,0,0.4117,0.4119,0,0,0,0,0,0,0,0,0.384,0.3848,0.3946,0.3948,0.3951,0.3996,0.3992,0.4057,0.3987,0.3962,0.3985,0.3984,0.4073,0.4079,0.4077,0.4149,0.4154,0.4117,0.412,0.4122,0.4123,0,0,0,0,0,0,0,0.3836,0.3845,0.3955,0.3948,0.3951,0.3947,0.3953,0.4003,0.4013,0.3964,0.3966,0.3989,0.4073,0.4073,0.408,0.4156,0.4117,0.4121,0.4124,0.4126,0.4351,0.4354,0,0,0,0,0,0,0.385,0.3841,0.3954,0.3958,0.3904,0.3951,0.3957,0.3974,0.4012,0.4019,0.399,0.3989,0.4065,0.4075,0.4084,0.4188,0.4122,0.4127,0.4129,0.4348,0.4352,0.4355,0,0,0,0,0,0,0.3847,0.3859,0.3951,0.391,0.3922,0.3955,0.3973,0.3976,0.3989,0.4032,0.4039,0.4004,0.4064,0.4077,0.4176,0.4191,0.4129,0.4133,0.4345,0.435,0.4354,0.4365,0,0,0,0,0,0,0.3842,0.3857,0.3861,0.3911,0.3926,0.3989,0.3975,0.3978,0.4009,0.4008,0.4047,0.4055,0.4065,0.4169,0.4181,0.4196,0.4137,0.4341,0.4347,0.4352,0.4361,0.4369,0.4376,0,0,0,0,0,0.3836,0.3846,0.386,0.3874,0.3934,0.3992,0.3997,0.4011,0.4011,0.4019,0.4077,0.4054,0.4212,0.4177,0.419,0.4206,0.4338,0.4345,0.4352,0.4357,0.4367,0.4376,0,0,0,0,0,0,0.3779,0.3848,0.3864,0.3894,0.3945,0.3992,0.4004,0.4024,0.4071,0.4075,0.4107,0.4122,0.4213,0.4226,0.4185,0.4294,0.4266,0.4276,0.4265,0.4276,0.4283,0.4269,0.4141,0,0,0,0,0,0.3774,0.3793,0.3869,0.389,0.3922,0.3967,0.399,0.401,0.4067,0.4082,0.4116,0.4172,0.425,0.4276,0.4336,0.4398,0.4401,0.4417,0.4425,0.4431,0.4433,0.4453,0.446,0.4378,0.4378,0.4378,0,0,0.3762,0.3798,0.3812,0.3879,0.3915,0.3972,0.3976,0.4022,0.4067,0.4094,0.4155,0.421,0.4282,0.4356,0.4394,0.4365,0.4465,0.444,0.4444,0.4443,0.446,0.4468,0.4474,0.4382,0.4382,0.4381,0,0,0.3752,0.3782,0.3804,0.3859,0.3931,0.3967,0.3991,0.4054,0.4077,0.4162,0.4203,0.4273,0.4364,0.441,0.4453,0.4546,0.452,0.4562,0.4569,0.4587,0.4593,0.4598,0.463,0.4637,0.4546,0.4546,0.4546,0,0.3734,0.3776,0.382,0.3872,0.3921,0.3975,0.4029,0.4073,0.4155,0.4188,0.4186,0.434,0.4387,0.4497,0.453,0.4557,0.457,0.4517,0.4592,0.4597,0.4601,0.4633,0.4641,0.4547,0.4547,0.4547,0.4547,0,0.3756,0.3802,0.3825,0.3907,0.3962,0.4014,0.4104,0.4145,0.4182,0.4225,0.4329,0.4399,0.4481,0.4509,0.4553,0.4623,0.4625,0.4607,0.4551,0.4609,0.4641,0.4648,0.4549,0.4549,0.4548,0.4548,0,0,0.3699,0.3815,0.3826,0.3871,0.3987,0.4031,0.412,0.4209,0.4257,0.4321,0.4384,0.4509,0.4524,0.4577,0.4623,0.4639,0.4691,0.4635,0.4635,0.4638,0.4745,0.4687,0.469,0.4676,0.4677,0.4678,0.4759,0,0.3706,0.3787,0.3851,0.394,0.4,0.4086,0.4162,0.4248,0.431,0.4379,0.4453,0.4539,0.456,0.46,0.4625,0.4693,0.4711,0.4672,0.4715,0.4717,0.4632,0.4697,0.4405,0.4447,0.4767,0.4768,0.4769,0,0.3721,0.3769,0.385,0.3962,0.3996,0.4047,0.416,0.424,0.4361,0.4414,0.4495,0.4558,0.4653,0.4632,0.4736,0.471,0.4733,0.4756,0.4759,0.4701,0.4672,0.4442,0.4449,0.4338,0.4781,0.478,0.4779,0,0.3673,0.3776,0.3825,0.3872,0.4005,0.404,0.4105,0.423,0.4302,0.4429,0.4484,0.4594,0.4655,0.4702,0.4783,0.4758,0.487,0.4831,0.4801,0.4798,0.4557,0.453,0.4428,0.4874,0.4874,0.4874,0.4874,0,0.3683,0.3729,0.3791,0.3836,0.3882,0.3989,0.4068,0.4153,0.4276,0.436,0.4484,0.4562,0.467,0.4758,0.48,0.4844,0.4885,0.4819,0.4814,0.4558,0.4532,0.443,0.44,0.4877,0.4876,0.4876,0.4875,0,0.3678,0.3718,0.3774,0.3856,0.3874,0.391,0.4037,0.4094,0.422,0.4332,0.4376,0.4549,0.4678,0.4788,0.4885,0.486,0.4758,0.4907,0.4618,0.4576,0.4403,0.4385,0.4187,0.4076,0.4862,0.4861,0.4861,0,0.3682,0.3713,0.3769,0.3769,0.3803,0.3866,0.3915,0.4051,0.4114,0.4318,0.4354,0.453,0.463,0.4777,0.478,0.484,0.4737,0.459,0.4477,0.4365,0.4343,0.4219,0.4131,0.4175,0.4168,0.4163,0.4159,0,0.3687,0.3702,0.374,0.3741,0.3754,0.3811,0.3876,0.392,0.4086,0.4168,0.4282,0.4372,0.4523,0.4464,0.4562,0.4546,0.4327,0.4485,0.4413,0.384,0.3649,0.3546,0.4187,0.4112,0.4117,0.412,0.4123,0.4125,0.3658,0.3674,0.3694,0.3684,0.3705,0.3727,0.3732,0.3814,0.3889,0.3957,0.4107,0.4147,0.415,0.4239,0.4222,0.398,0.406,0.3801,0.3809,0.3712,0.3518,0.4088,0.3985,0.3989,0.3992,0.3995,0.3997,0,0.3587,0.3618,0.3627,0.3607,0.3581,0.3628,0.3675,0.3649,0.3668,0.3764,0.3807,0.3734,0.3642,0.3643,0.3456,0.3306,0.314,0.3209,0.2928,0.2896,0.3414,0.3297,0.2984,0.2984,0.2984,0.2984,0.2984,0.2984,0.3549,0.3527,0.3532,0.345,0.3443,0.3376,0.3368,0.3353,0.3393,0.3308,0.3238,0.3243,0.3249,0.3096,0.2875,0.2794,0.2618,0.2443,0.2577,0.2904,0.2958,0.3009,0.2891,0.2497,0.2497,0.1845,0.184,0.1836]},{"header":{"parameterUnit":"m.s-1","parameterCategory":2,"la1":30.2991,"la2":30.254,"lo1":-89.0895,"lo2":-89.0444,"dy":0.0017,"dx":0.0017,"nx":28,"ny":28,"refTime":"2023-09-07T03:00:00:Z","depth":"0","parameterNumber":3,"parameterNumberName":"V-component_of_CURRENTS"},"data":[0,0,0,0,0,0,0,0,0,0,0,0,0,0,0,0,0,0,0,0,0,0,0,0,0,0,0,0,0,0,0,0,0,0,0,0,0,0,0,0,0,0,0,0,0,0,0,0,0,0,0,0,0,0,0,0,0,0,-0.0196,-0.0197,0,-0.0295,-0.0296,-0.0297,-0.0347,-0.0347,-0.0348,-0.0348,-0.0595,-0.0601,-0.0607,0,0,0,0,0,0,0,0,0,0,0,0,0,-0.0084,-0.0085,-0.0196,-0.0198,-0.0199,-0.0295,-0.0296,-0.0297,-0.0347,-0.0347,-0.0348,-0.0348,-0.0593,-0.06,-0.0608,0,0,0,0,0,0,0,0,0,0,0,0,0,-0.0149,-0.0086,-0.0196,-0.0238,-0.0243,-0.0294,-0.0296,-0.0297,-0.0347,-0.0347,-0.0348,-0.0348,-0.059,-0.0599,-0.0609,-0.0655,0,0,-0.0637,-0.0641,0,0,0,0,0,0,0,0,-0.0145,-0.0153,-0.023,-0.0235,-0.0241,-0.0312,-0.0347,-0.0425,-0.0347,-0.0304,-0.0348,-0.0349,-0.0516,-0.0531,-0.0542,-0.0667,-0.0678,-0.0638,-0.0644,-0.0648,-0.065,0,0,0,0,0,0,0,-0.0141,-0.0149,-0.0232,-0.0232,-0.0239,-0.0264,-0.0273,-0.0361,-0.0406,-0.0308,-0.0312,-0.0329,-0.052,-0.0532,-0.0548,-0.0681,-0.0638,-0.0646,-0.0652,-0.0656,-0.0935,-0.0936,0,0,0,0,0,0,-0.0134,-0.0145,-0.0228,-0.0235,-0.0198,-0.0266,-0.0276,-0.0286,-0.0402,-0.042,-0.0328,-0.0331,-0.0516,-0.0537,-0.0558,-0.0633,-0.0648,-0.0656,-0.0662,-0.0933,-0.0935,-0.0937,0,0,0,0,0,0,-0.0131,-0.014,-0.0225,-0.0195,-0.0208,-0.0267,-0.0278,-0.0288,-0.0301,-0.0416,-0.0436,-0.0332,-0.0517,-0.0544,-0.0653,-0.0643,-0.0661,-0.0669,-0.0931,-0.0934,-0.0936,-0.0778,0,0,0,0,0,0,-0.0127,-0.0138,-0.0131,-0.0194,-0.021,-0.0241,-0.0278,-0.0289,-0.0312,-0.0316,-0.0427,-0.0449,-0.052,-0.0639,-0.0663,-0.0656,-0.0676,-0.0928,-0.0932,-0.0935,-0.0781,-0.0775,-0.077,0,0,0,0,0,-0.0122,-0.0113,-0.0129,-0.014,-0.0202,-0.0241,-0.0249,-0.0292,-0.0311,-0.0306,-0.0405,-0.0446,-0.0677,-0.0648,-0.0675,-0.0671,-0.0927,-0.0931,-0.0935,-0.0783,-0.0776,-0.077,0,0,0,0,0,0,-0.0061,-0.012,-0.0139,-0.0147,-0.0185,-0.025,-0.0256,-0.0285,-0.0352,-0.0367,-0.0471,-0.0501,-0.0589,-0.067,-0.0634,-0.077,-0.0809,-0.0818,-0.0684,-0.0679,-0.0673,-0.0615,-0.0684,0,0,0,0,0,-0.0044,-0.0052,-0.0112,-0.0117,-0.0137,-0.0193,-0.0212,-0.0241,-0.0315,-0.0341,-0.0419,-0.0527,-0.0627,-0.0682,-0.0776,-0.0852,-0.0876,-0.0874,-0.0868,-0.0862,-0.084,-0.0885,-0.0879,-0.095,-0.095,-0.095,0,0,-0.0028,-0.0057,-0.0065,-0.0104,-0.0141,-0.0161,-0.0205,-0.0231,-0.0247,-0.0364,-0.0413,-0.0506,-0.0646,-0.0725,-0.0772,-0.079,-0.0851,-0.0867,-0.086,-0.0841,-0.0888,-0.0881,-0.0874,-0.0953,-0.0953,-0.0952,0,0,0.001,-0.0021,-0.0012,-0.0044,-0.009,-0.0128,-0.0132,-0.0192,-0.0216,-0.0281,-0.0375,-0.046,-0.0603,-0.0687,-0.0756,-0.0786,-0.0818,-0.0825,-0.0747,-0.079,-0.0782,-0.0776,-0.0755,-0.0748,-0.0822,-0.0822,-0.0822,0,0.0035,0.0035,-0.0014,-0.0019,-0.0042,-0.0111,-0.0111,-0.015,-0.0232,-0.0253,-0.0284,-0.0475,-0.0581,-0.0685,-0.0692,-0.0764,-0.0773,-0.0746,-0.0774,-0.0769,-0.0765,-0.0745,-0.0739,-0.0815,-0.0816,-0.0816,-0.0817,0,0.0078,0.007,0.0067,0.0038,0.0012,-0.0004,-0.007,-0.0089,-0.0131,-0.0172,-0.0256,-0.039,-0.0498,-0.0549,-0.063,-0.067,-0.0675,-0.0749,-0.0764,-0.0746,-0.0729,-0.0725,-0.0805,-0.0807,-0.0809,-0.0811,0,0,0.0146,0.0109,0.0108,0.0102,0.0039,0.0023,-0.0006,-0.0045,-0.0051,-0.0128,-0.0141,-0.0302,-0.0348,-0.0431,-0.0536,-0.0574,-0.0545,-0.0632,-0.0638,-0.0562,-0.058,-0.0488,-0.0476,-0.0613,-0.0613,-0.0613,-0.056,0,0.0194,0.0214,0.0176,0.0174,0.0167,0.0098,0.008,0.0034,-0.0011,-0.0039,-0.0156,-0.022,-0.0316,-0.0355,-0.0408,-0.0528,-0.0537,-0.0549,-0.0653,-0.0655,-0.0536,-0.047,-0.0415,-0.0356,-0.0557,-0.0557,-0.0557,0,0.0245,0.0252,0.0272,0.0242,0.0234,0.0225,0.0194,0.0174,0.0108,0.0075,0.0007,-0.008,-0.0164,-0.0243,-0.0374,-0.0372,-0.0447,-0.0522,-0.0524,-0.0488,-0.0557,-0.0424,-0.0343,-0.0481,-0.0552,-0.0553,-0.0553,0,0.0311,0.031,0.0336,0.032,0.0282,0.0284,0.027,0.0217,0.0223,0.0163,0.0172,0.004,-0.0003,-0.0129,-0.0265,-0.0321,-0.0369,-0.0485,-0.0459,-0.0452,-0.045,-0.0442,-0.0474,-0.054,-0.054,-0.0541,-0.0541,0,0.0354,0.0368,0.0375,0.0374,0.0419,0.0364,0.04,0.0364,0.0344,0.0383,0.0249,0.0268,0.0026,-0.0037,-0.0188,-0.0266,-0.0307,-0.0399,-0.0427,-0.0391,-0.038,-0.0541,-0.065,-0.0539,-0.0539,-0.0539,-0.054,0,0.0388,0.0392,0.0421,0.0426,0.0442,0.0471,0.0501,0.053,0.0501,0.0555,0.0552,0.045,0.0389,0.0196,0.0011,-0.0133,-0.0296,-0.0266,-0.0161,-0.0177,-0.0302,-0.0405,-0.0441,-0.0492,-0.024,-0.0237,-0.0235,0,0.0407,0.0428,0.0474,0.0521,0.0525,0.0578,0.0622,0.061,0.0658,0.0694,0.0739,0.0699,0.0706,0.0505,0.0266,0.0078,-0.0135,-0.0034,-0.0152,-0.0245,-0.0385,-0.0462,-0.0511,-0.0082,-0.0078,-0.0076,-0.0073,0,0.0446,0.0462,0.0492,0.0594,0.066,0.073,0.0801,0.0866,0.0887,0.097,0.107,0.1091,0.0935,0.0776,0.0516,0.0347,-0.0103,0.0019,-0.0143,-0.0283,-0.031,-0.0393,-0.0144,-0.0049,-0.0052,-0.0053,-0.0055,-0.0056,0.0492,0.0528,0.0588,0.0678,0.0766,0.0871,0.0948,0.1061,0.1197,0.1354,0.1366,0.1498,0.1202,0.0876,0.0617,0.0182,0.0124,0.0001,-0.0115,-0.0181,-0.0231,0.0134,0.0227,0.0226,0.0226,0.0225,0.0224,0,0.0562,0.0599,0.0679,0.0789,0.0892,0.0918,0.1063,0.1172,0.1383,0.1604,0.1755,0.1783,0.1425,0.0982,0.0377,0.0067,-0.0098,-0.0118,-0.0272,-0.0321,-0.0047,-0.0041,0.0076,0.0077,0.0077,0.0077,0.0077,0.0077,0.0608,0.0686,0.0713,0.0884,0.0965,0.1111,0.1199,0.1393,0.1588,0.1915,0.21,0.2196,0.1845,0.0733,-0.0034,-0.0215,-0.0469,-0.0447,-0.0604,-0.049,-0.0491,-0.0491,-0.0512,-0.0494,-0.0495,-0.0828,-0.0832,-0.0835]}],[{"header":{"parameterUnit":"m.s-1","parameterCategory":2,"la1":30.2991,"la2":30.254,"lo1":-89.0895,"lo2":-89.0444,"dy":0.0017,"dx":0.0017,"nx":28,"ny":28,"refTime":"2023-09-07T03:00:00:Z","depth":"2","parameterNumber":2,"parameterNumberName":"U-component_of_CURRENTS"},"data":[0,0,0,0,0,0,0,0,0,0,0,0,0,0,0,0,0,0,0,0,0,0,0,0,0,0,0,0,0,0,0,0,0,0,0,0,0,0,0,0,0,0,0,0,0,0,0,0,0,0,0,0,0,0,0,0,0,0,0.2475,0.2476,0,0.2576,0.2578,0.258,0.2603,0.2601,0.26,0.2598,0.2517,0.2516,0.2516,0,0,0,0,0,0,0,0,0,0,0,0,0,0.2485,0.2484,0.2475,0.2476,0.2476,0.2576,0.2578,0.2581,0.2604,0.2601,0.2599,0.2597,0.2517,0.2516,0.2516,0,0,0,0,0,0,0,0,0,0,0,0,0,0.2533,0.2484,0.2475,0.249,0.2492,0.2575,0.2578,0.2581,0.2604,0.2601,0.2599,0.2596,0.2517,0.2516,0.2515,0.2565,0,0,0.2513,0.2513,0,0,0,0,0,0,0,0,0.253,0.2534,0.2488,0.2489,0.2491,0.2564,0.2551,0.2563,0.2605,0.2574,0.2598,0.2595,0.251,0.251,0.2554,0.2561,0.2557,0.2513,0.2513,0.2512,0.2512,0,0,0,0,0,0,0,0.2527,0.2531,0.2527,0.2488,0.249,0.2553,0.2557,0.2556,0.2561,0.2576,0.2575,0.2569,0.251,0.2555,0.2551,0.2556,0.2513,0.2512,0.2512,0.2512,0.2642,0.2645,0,0,0,0,0,0,0.2484,0.2527,0.2524,0.2529,0.2491,0.2554,0.2559,0.2553,0.2565,0.2563,0.2571,0.2569,0.2558,0.2552,0.2548,0.2621,0.2512,0.2512,0.2511,0.2638,0.2643,0.2647,0,0,0,0,0,0,0.2484,0.2483,0.252,0.2521,0.2528,0.2554,0.2549,0.2556,0.2626,0.2561,0.2557,0.2634,0.2555,0.2549,0.2544,0.2616,0.2511,0.2511,0.2633,0.2639,0.2645,0.2755,0,0,0,0,0,0,0.2484,0.2483,0.2495,0.2518,0.2526,0.2563,0.2551,0.256,0.2618,0.2618,0.2613,0.2602,0.2553,0.2545,0.2543,0.2613,0.251,0.2628,0.2636,0.2643,0.2746,0.2763,0.2778,0,0,0,0,0,0.2484,0.2482,0.2495,0.2496,0.2532,0.2563,0.2577,0.2594,0.2624,0.2653,0.2642,0.2603,0.2592,0.2546,0.2543,0.2615,0.2625,0.2634,0.2642,0.2739,0.276,0.2778,0,0,0,0,0,0,0.2488,0.2484,0.2498,0.2496,0.253,0.2562,0.2599,0.263,0.2663,0.2667,0.2628,0.2615,0.2667,0.2625,0.2576,0.2681,0.2615,0.2623,0.269,0.2709,0.2725,0.2655,0.2509,0,0,0,0,0,0.2496,0.2506,0.2513,0.2527,0.2544,0.2598,0.2628,0.2641,0.2656,0.2675,0.2649,0.2656,0.2707,0.2686,0.2707,0.2728,0.2702,0.2785,0.2801,0.2815,0.2762,0.2805,0.2818,0.2676,0.2676,0.2675,0,0,0.2495,0.2506,0.2506,0.2532,0.2575,0.2603,0.2613,0.2661,0.2697,0.2655,0.2689,0.2721,0.2738,0.2782,0.28,0.2738,0.2858,0.2826,0.2837,0.2775,0.2815,0.2828,0.284,0.2682,0.2681,0.268,0,0,0.2497,0.2524,0.253,0.2572,0.262,0.264,0.2662,0.2696,0.273,0.2754,0.2785,0.2819,0.284,0.2861,0.2887,0.3001,0.2974,0.3057,0.3035,0.3082,0.3092,0.31,0.3137,0.3147,0.3026,0.3026,0.3026,0,0.2493,0.2513,0.2543,0.2581,0.2615,0.2661,0.269,0.2744,0.2764,0.2776,0.2757,0.286,0.2871,0.2968,0.3007,0.3032,0.3051,0.2958,0.3097,0.3105,0.3111,0.3146,0.3156,0.3032,0.3032,0.3031,0.303,0,0.2525,0.2541,0.2564,0.2616,0.2659,0.27,0.2749,0.2781,0.2811,0.283,0.2914,0.2938,0.2974,0.3039,0.3044,0.3144,0.3147,0.3145,0.3034,0.3131,0.3164,0.3173,0.3041,0.3039,0.3037,0.3036,0,0,0.2478,0.2556,0.2563,0.2588,0.2686,0.2705,0.278,0.2823,0.2875,0.2887,0.2933,0.3035,0.3044,0.3074,0.3135,0.3148,0.3247,0.3153,0.3153,0.3163,0.3355,0.3251,0.325,0.3282,0.3283,0.3284,0.3377,0,0.2487,0.2528,0.2581,0.2627,0.2651,0.2726,0.2788,0.2843,0.2898,0.2939,0.2987,0.3066,0.3076,0.3126,0.3151,0.3255,0.3266,0.322,0.3278,0.3278,0.3151,0.3254,0.3,0.305,0.3384,0.3386,0.3386,0,0.2501,0.2521,0.2561,0.2616,0.2639,0.2683,0.2783,0.2845,0.2935,0.2981,0.3038,0.3089,0.317,0.3149,0.328,0.3263,0.3292,0.3326,0.3332,0.3174,0.3186,0.3,0.3051,0.3399,0.3398,0.3397,0.3397,0,0.2441,0.25,0.2523,0.256,0.2639,0.2677,0.2727,0.2841,0.2902,0.3016,0.3059,0.3156,0.322,0.3275,0.3341,0.3336,0.3443,0.3453,0.3371,0.3365,0.3116,0.3085,0.348,0.348,0.348,0.348,0.3479,0,0.2422,0.2425,0.2499,0.2508,0.2557,0.264,0.2713,0.2794,0.2907,0.2975,0.308,0.3144,0.325,0.332,0.3362,0.3394,0.347,0.3357,0.3375,0.3157,0.3129,0.3385,0.3373,0.3483,0.3482,0.3482,0.3481,0,0.2343,0.2391,0.2416,0.2495,0.2527,0.257,0.2685,0.2736,0.2876,0.2976,0.3009,0.3152,0.3263,0.3342,0.3445,0.3419,0.3461,0.3432,0.316,0.3142,0.3351,0.3344,0.3376,0.3373,0.3371,0.3368,0.3367,0,0.2307,0.2313,0.2397,0.2431,0.247,0.2539,0.2587,0.2709,0.2775,0.2968,0.2996,0.3131,0.3185,0.3299,0.3295,0.3337,0.341,0.3094,0.3006,0.3322,0.3338,0.3335,0.3332,0.2759,0.2753,0.2747,0.2743,0,0.2247,0.229,0.232,0.2376,0.243,0.2465,0.2541,0.257,0.2721,0.2806,0.29,0.2951,0.3068,0.2979,0.3028,0.3014,0.3075,0.2982,0.3399,0.2811,0.2744,0.2759,0.2775,0.2695,0.27,0.2703,0.2706,0.2708,0.2228,0.2246,0.2298,0.2345,0.2375,0.237,0.2361,0.2431,0.2474,0.256,0.2693,0.2705,0.2757,0.2694,0.2628,0.2592,0.2808,0.269,0.2705,0.2727,0.2625,0.2555,0.2452,0.2456,0.2458,0.2461,0.2463,0,0.2195,0.2224,0.226,0.2282,0.2226,0.2298,0.2308,0.2254,0.2236,0.2344,0.2387,0.2217,0.2174,0.2246,0.2113,0.2113,0.2086,0.2031,0.1979,0.203,0.2074,0.1937,0.1583,0.158,0.1577,0.1575,0,0,0.2194,0.2177,0.2182,0.2108,0.2123,0.2045,0.2019,0.1952,0.1961,0.1897,0.1901,0.2075,0.2171,0.1848,0.1812,0.1671,0.1831,0.1602,0.2314,0.2304,0.2344,0.2467,0.2314,0,0,0,0,0]},{"header":{"parameterUnit":"m.s-1","parameterCategory":2,"la1":30.2991,"la2":30.254,"lo1":-89.0895,"lo2":-89.0444,"dy":0.0017,"dx":0.0017,"nx":28,"ny":28,"refTime":"2023-09-07T03:00:00:Z","depth":"2","parameterNumber":3,"parameterNumberName":"V-component_of_CURRENTS"},"data":[0,0,0,0,0,0,0,0,0,0,0,0,0,0,0,0,0,0,0,0,0,0,0,0,0,0,0,0,0,0,0,0,0,0,0,0,0,0,0,0,0,0,0,0,0,0,0,0,0,0,0,0,0,0,0,0,0,0,0.0271,0.0271,0,0.0226,0.0226,0.0225,0.0186,0.0185,0.0185,0.0185,0.0181,0.0181,0.0181,0,0,0,0,0,0,0,0,0,0,0,0,0,0.0273,0.0273,0.0271,0.0271,0.027,0.0226,0.0226,0.0225,0.0186,0.0185,0.0185,0.0185,0.0181,0.0181,0.0181,0,0,0,0,0,0,0,0,0,0,0,0,0,0.0253,0.0273,0.0271,0.0247,0.0244,0.0227,0.0226,0.0225,0.0186,0.0185,0.0185,0.0184,0.0181,0.0181,0.0181,0.0191,0,0,0.0182,0.0182,0,0,0,0,0,0,0,0,0.0254,0.0253,0.0251,0.0248,0.0246,0.0213,0.0225,0.0216,0.0186,0.0206,0.0185,0.0184,0.0197,0.0196,0.0185,0.0191,0.0191,0.0182,0.0182,0.0182,0.0182,0,0,0,0,0,0,0,0.0256,0.0254,0.0251,0.025,0.0247,0.0221,0.0218,0.0223,0.0204,0.0204,0.0202,0.02,0.0196,0.0185,0.0185,0.0191,0.0182,0.0182,0.0182,0.0183,0.0203,0.0204,0,0,0,0,0,0,0.0268,0.0256,0.0253,0.025,0.0251,0.0222,0.0218,0.0222,0.0203,0.0199,0.02,0.0198,0.0185,0.0185,0.0185,0.0217,0.0182,0.0183,0.0183,0.0203,0.0203,0.0204,0,0,0,0,0,0,0.0269,0.0269,0.0255,0.0253,0.025,0.0223,0.0227,0.0222,0.0199,0.02,0.0197,0.0182,0.0184,0.0184,0.021,0.0216,0.0183,0.0183,0.0202,0.0203,0.0204,0.0268,0,0,0,0,0,0,0.0269,0.0269,0.027,0.0254,0.025,0.0254,0.0228,0.0221,0.02,0.0197,0.0184,0.0183,0.0184,0.021,0.021,0.0216,0.0183,0.0202,0.0203,0.0203,0.0266,0.0271,0.0276,0,0,0,0,0,0.0269,0.0286,0.0271,0.027,0.0255,0.0254,0.025,0.0228,0.02,0.0202,0.0205,0.0183,0.0214,0.0212,0.0212,0.0217,0.0202,0.0202,0.0203,0.0264,0.027,0.0276,0,0,0,0,0,0,0.0291,0.0283,0.0266,0.0279,0.0268,0.0249,0.0251,0.0222,0.0219,0.0214,0.0205,0.0207,0.0228,0.0213,0.021,0.0222,0.0197,0.0198,0.0242,0.0248,0.0253,0.0283,0.0183,0,0,0,0,0,0.0295,0.0298,0.0288,0.0293,0.0296,0.0265,0.0257,0.0237,0.0234,0.0229,0.0229,0.0224,0.0232,0.0234,0.0241,0.0255,0.0228,0.0251,0.0256,0.026,0.0283,0.0254,0.0259,0.0207,0.0207,0.0207,0,0,0.0305,0.0297,0.03,0.0296,0.0286,0.0299,0.0259,0.0252,0.0259,0.0233,0.0256,0.0248,0.0241,0.0264,0.0269,0.0253,0.0256,0.0261,0.0266,0.0287,0.0256,0.0261,0.0266,0.0207,0.0207,0.0207,0,0,0.0334,0.0322,0.0341,0.0337,0.0324,0.0312,0.0309,0.0295,0.029,0.0306,0.0291,0.0301,0.0301,0.0311,0.031,0.0344,0.0288,0.032,0.0369,0.034,0.0345,0.0348,0.0301,0.03,0.0317,0.0317,0.0317,0,0.0345,0.0364,0.0345,0.0362,0.0368,0.0322,0.0348,0.0338,0.0332,0.0348,0.0325,0.0339,0.0331,0.0361,0.0375,0.0359,0.0319,0.0349,0.0348,0.0351,0.0354,0.0304,0.0302,0.0321,0.032,0.032,0.032,0,0.0389,0.0403,0.0417,0.0425,0.0429,0.044,0.0433,0.0436,0.0418,0.0414,0.0438,0.043,0.0439,0.0423,0.0415,0.0427,0.0384,0.0362,0.0336,0.0363,0.0308,0.0305,0.0325,0.0324,0.0323,0.0322,0,0,0.0423,0.0446,0.045,0.0472,0.0463,0.0479,0.0497,0.0519,0.0541,0.0525,0.056,0.0563,0.0542,0.054,0.0511,0.0489,0.0468,0.0436,0.0432,0.0396,0.038,0.0343,0.0336,0.0433,0.0434,0.0434,0.0327,0,0.0465,0.0517,0.0515,0.0567,0.0598,0.0578,0.0608,0.0614,0.0613,0.0638,0.0614,0.0636,0.0587,0.0589,0.056,0.0497,0.0465,0.0498,0.0355,0.0351,0.0321,0.0334,0.0357,0.0264,0.0324,0.0323,0.0323,0,0.0513,0.054,0.0601,0.0651,0.0667,0.0692,0.0734,0.0755,0.0768,0.0763,0.0761,0.0738,0.072,0.0667,0.0565,0.0579,0.0496,0.0434,0.0428,0.0377,0.031,0.0249,0.0255,0.0317,0.0317,0.0318,0.0318,0,0.0553,0.0609,0.0661,0.0673,0.0715,0.0751,0.078,0.0802,0.0842,0.0847,0.0864,0.082,0.0806,0.0699,0.057,0.0562,0.0442,0.0408,0.0295,0.029,0.0278,0.0272,0.0345,0.0345,0.0345,0.0346,0.0346,0,0.0603,0.0647,0.0688,0.0718,0.0796,0.0808,0.0891,0.0903,0.0938,0.1001,0.0938,0.0962,0.0814,0.0729,0.0594,0.0431,0.045,0.0315,0.027,0.0297,0.0294,0.0322,0.032,0.0342,0.0342,0.0343,0.0344,0,0.0644,0.0662,0.0727,0.0788,0.0817,0.0875,0.0969,0.1028,0.1037,0.111,0.1118,0.1066,0.0948,0.0781,0.0605,0.047,0.0314,0.0253,0.0286,0.0247,0.0171,0.0174,0.0114,0.0112,0.011,0.0109,0.0108,0,0.0666,0.07,0.0783,0.0828,0.0864,0.0951,0.1019,0.1069,0.1136,0.1183,0.1227,0.1146,0.1103,0.0808,0.0559,0.0302,0.0287,0.0151,0.0155,0.0191,0.0152,0.0158,0.0163,0.0147,0.0146,0.0146,0.0145,0,0.0706,0.0731,0.0789,0.0886,0.0965,0.1066,0.1171,0.1241,0.1307,0.1357,0.1403,0.1375,0.111,0.0861,0.0508,0.0338,0.019,0.013,0.0163,0.0208,0.0215,0.0179,0.0184,0.014,0.014,0.014,0.0141,0.0141,0.0732,0.0779,0.0853,0.0951,0.1047,0.1175,0.1268,0.1372,0.1484,0.1563,0.1528,0.1466,0.1197,0.0739,0.0448,0.0137,0.016,0.0052,0.0057,0.0062,0.0091,0.0096,0.0001,0.0001,0.0001,0.0001,0.0001,0,0.0762,0.0824,0.0915,0.1035,0.1147,0.1195,0.1364,0.1447,0.1582,0.163,0.1646,0.1365,0.109,0.077,0.0317,0.0052,0.0042,-0.0041,0.0018,0.0025,0.0031,0.0062,-0.0038,-0.0039,-0.0039,-0.004,0,0,0.0778,0.0865,0.0918,0.1093,0.1186,0.1344,0.1443,0.1558,0.1628,0.1663,0.1617,0.1538,0.1171,0.0834,0.0481,0.0224,0.0183,0.0165,0.0225,0.0345,0.0354,0.0114,0.0171,0,0,0,0,0]}],[{"header":{"parameterUnit":"m.s-1","parameterCategory":2,"la1":30.2991,"la2":30.254,"lo1":-89.0895,"lo2":-89.0444,"dy":0.0017,"dx":0.0017,"nx":28,"ny":28,"refTime":"2023-09-07T03:00:00:Z","depth":"4","parameterNumber":2,"parameterNumberName":"U-component_of_CURRENTS"},"data":[0,0,0,0,0,0,0,0,0,0,0,0,0,0,0,0,0,0,0,0,0,0,0,0,0,0,0,0,0,0,0,0,0,0,0,0,0,0,0,0,0,0,0,0,0,0,0,0,0,0,0,0,0,0,0,0,0,0,0.1341,0.1341,0,0.1296,0.1295,0.1294,0.1307,0.1308,0.131,0.1311,0.1359,0.1359,0.1359,0,0,0,0,0,0,0,0,0,0,0,0,0,0.1341,0.1341,0.1341,0.1341,0.134,0.1296,0.1295,0.1294,0.1307,0.1308,0.131,0.1312,0.1359,0.1359,0.1359,0,0,0,0,0,0,0,0,0,0,0,0,0,0.1318,0.1341,0.1341,0.1346,0.1346,0.1296,0.1295,0.1293,0.1306,0.1309,0.1311,0.1313,0.1359,0.1359,0.1359,0.1316,0,0,0.1359,0.1359,0,0,0,0,0,0,0,0,0.1319,0.1317,0.1345,0.1345,0.1346,0.1314,0.1313,0.1307,0.1306,0.1316,0.1311,0.1314,0.1355,0.1355,0.1333,0.1318,0.132,0.1359,0.1359,0.1359,0.1359,0,0,0,0,0,0,0,0.1321,0.1319,0.1317,0.1345,0.1345,0.1317,0.1317,0.131,0.1321,0.1315,0.1317,0.132,0.1355,0.1333,0.1335,0.1321,0.1359,0.1359,0.1359,0.1359,0.1386,0.1387,0,0,0,0,0,0,0.134,0.1321,0.1319,0.1317,0.1343,0.1316,0.1315,0.1317,0.1319,0.1323,0.1318,0.1321,0.1332,0.1335,0.1337,0.1394,0.1359,0.1359,0.1359,0.1385,0.1386,0.1387,0,0,0,0,0,0,0.134,0.134,0.1321,0.1322,0.1318,0.1315,0.1317,0.1316,0.1333,0.1322,0.1326,0.1343,0.1334,0.1337,0.1357,0.1393,0.1359,0.1359,0.1384,0.1386,0.1387,0.1441,0,0,0,0,0,0,0.134,0.134,0.1359,0.1323,0.1319,0.1324,0.1315,0.1313,0.1332,0.1336,0.1343,0.1347,0.1335,0.1357,0.1357,0.1392,0.1359,0.1383,0.1385,0.1386,0.1439,0.1444,0.1449,0,0,0,0,0,0.134,0.1352,0.136,0.1361,0.1341,0.1326,0.1321,0.1321,0.1332,0.1343,0.1344,0.1349,0.1367,0.1357,0.1357,0.1393,0.1383,0.1385,0.1386,0.1436,0.1443,0.1449,0,0,0,0,0,0,0.1358,0.1354,0.1362,0.1373,0.1369,0.1331,0.1342,0.134,0.1343,0.1361,0.1348,0.1352,0.1377,0.1376,0.1365,0.1404,0.138,0.1382,0.1418,0.1424,0.143,0.1476,0.1359,0,0,0,0,0,0.1372,0.1387,0.1374,0.1387,0.139,0.1372,0.1372,0.1373,0.1366,0.1371,0.1382,0.1387,0.1373,0.1395,0.1382,0.1408,0.1425,0.1434,0.144,0.1444,0.1481,0.1515,0.1527,0.1393,0.1393,0.1393,0,0,0.138,0.1385,0.1392,0.1394,0.1389,0.1388,0.1377,0.1389,0.1402,0.1376,0.1415,0.14,0.1378,0.1395,0.1411,0.1412,0.1489,0.1446,0.1451,0.1486,0.1518,0.1532,0.1543,0.1394,0.1394,0.1393,0,0,0.1392,0.1413,0.1424,0.1424,0.1435,0.1425,0.1441,0.1435,0.1455,0.1476,0.145,0.1473,0.1471,0.1467,0.1457,0.149,0.1499,0.1485,0.1571,0.1602,0.1615,0.1625,0.1658,0.1671,0.1507,0.1507,0.1507,0,0.141,0.1416,0.1425,0.1431,0.1439,0.1449,0.1457,0.1465,0.1474,0.1501,0.1511,0.1515,0.1509,0.1514,0.1532,0.1508,0.1524,0.1546,0.1612,0.1623,0.1633,0.1664,0.1678,0.151,0.151,0.151,0.1509,0,0.141,0.1428,0.1436,0.1452,0.1464,0.1475,0.1489,0.1531,0.1567,0.1575,0.1618,0.1606,0.1622,0.1614,0.159,0.1648,0.1634,0.1597,0.16,0.1651,0.1679,0.1693,0.1514,0.1513,0.1512,0.1512,0,0,0.141,0.1434,0.1439,0.1453,0.1479,0.1484,0.1536,0.1573,0.1617,0.1659,0.1711,0.1713,0.1734,0.1727,0.17,0.1746,0.1829,0.1725,0.1725,0.1767,0.1908,0.1778,0.178,0.1801,0.1804,0.1806,0.1897,0,0.1411,0.1426,0.1443,0.1468,0.1475,0.1519,0.1559,0.1605,0.1659,0.1718,0.1746,0.1774,0.1763,0.1781,0.1826,0.1814,0.1869,0.1809,0.1847,0.1849,0.1734,0.1793,0.1815,0.1907,0.191,0.1912,0.1914,0,0.1394,0.1412,0.1436,0.1482,0.1493,0.1522,0.1609,0.1646,0.1731,0.1779,0.1843,0.1853,0.1924,0.1902,0.1977,0.1938,0.1954,0.1953,0.1955,0.1833,0.1745,0.1847,0.1939,0.1937,0.1935,0.1934,0.1932,0,0.1366,0.1405,0.1431,0.1441,0.1495,0.1546,0.1594,0.1678,0.1725,0.1832,0.1883,0.1948,0.1998,0.2035,0.2062,0.203,0.2135,0.2077,0.1978,0.1969,0.2036,0.2023,0.2154,0.2154,0.2154,0.2153,0.2153,0,0.1336,0.1361,0.143,0.1436,0.1495,0.1543,0.1619,0.1688,0.1779,0.1829,0.1916,0.1961,0.2041,0.2095,0.2104,0.2092,0.2176,0.2023,0.1992,0.2053,0.2041,0.2045,0.2031,0.2157,0.2156,0.2155,0.2155,0,0.1287,0.133,0.1363,0.144,0.1477,0.1523,0.1628,0.167,0.1779,0.1853,0.1894,0.2008,0.2083,0.2138,0.2203,0.2135,0.2135,0.2111,0.2203,0.217,0.194,0.1928,0.2008,0.2005,0.2002,0.1999,0.1997,0,0.1259,0.1271,0.1357,0.1387,0.143,0.1509,0.1555,0.1667,0.1707,0.1855,0.1873,0.1999,0.2058,0.2056,0.2123,0.2142,0.2109,0.2095,0.2003,0.1967,0.193,0.1923,0.1915,0.1992,0.1991,0.199,0.1989,0,0.1203,0.1246,0.1271,0.1331,0.1389,0.1434,0.1513,0.1535,0.1653,0.1769,0.1814,0.1851,0.1935,0.198,0.2021,0.202,0.2089,0.2062,0.2067,0.198,0.1948,0.1912,0.1908,0.1979,0.198,0.1981,0.1982,0,0.1172,0.1175,0.1214,0.1256,0.1315,0.1328,0.1387,0.1432,0.149,0.165,0.1666,0.1795,0.1917,0.192,0.1949,0.195,0.1907,0.1819,0.1836,0.1849,0.1751,0.1684,0.1634,0,0,0,0,0,0.113,0.1112,0.1135,0.1155,0.12,0.1239,0.1334,0.1391,0.1516,0.1505,0.1579,0.1645,0.1696,0.1767,0.1736,0.1877,0.1914,0.183,0.1821,0.1919,0.1931,0.1829,0,0,0,0,0,0,0.11,0.1111,0.1096,0.1051,0.1051,0.1088,0.1147,0.1236,0.1241,0.1382,0.1429,0.1531,0.1619,0.1697,0.17,0.172,0.1676,0.1915,0.191,0.1912,0.1923,0.1933,0.1833,0,0,0,0,0]},{"header":{"parameterUnit":"m.s-1","parameterCategory":2,"la1":30.2991,"la2":30.254,"lo1":-89.0895,"lo2":-89.0444,"dy":0.0017,"dx":0.0017,"nx":28,"ny":28,"refTime":"2023-09-07T03:00:00:Z","depth":"4","parameterNumber":3,"parameterNumberName":"V-component_of_CURRENTS"},"data":[0,0,0,0,0,0,0,0,0,0,0,0,0,0,0,0,0,0,0,0,0,0,0,0,0,0,0,0,0,0,0,0,0,0,0,0,0,0,0,0,0,0,0,0,0,0,0,0,0,0,0,0,0,0,0,0,0,0,0.0281,0.0281,0,0.0308,0.0309,0.0309,0.0316,0.0316,0.0316,0.0315,0.0321,0.0321,0.0322,0,0,0,0,0,0,0,0,0,0,0,0,0,0.0263,0.0263,0.0281,0.0281,0.0281,0.0308,0.0309,0.0309,0.0316,0.0316,0.0316,0.0315,0.0321,0.0321,0.0322,0,0,0,0,0,0,0,0,0,0,0,0,0,0.028,0.0263,0.0281,0.0287,0.0288,0.0308,0.0309,0.0309,0.0317,0.0316,0.0316,0.0315,0.0321,0.0321,0.0322,0.0335,0,0,0.0324,0.0324,0,0,0,0,0,0,0,0,0.0279,0.0281,0.0286,0.0287,0.0287,0.0307,0.0304,0.0316,0.0317,0.0307,0.0315,0.0315,0.0314,0.0315,0.0324,0.0336,0.0336,0.0324,0.0324,0.0325,0.0325,0,0,0,0,0,0,0,0.0278,0.028,0.0293,0.0286,0.0287,0.0298,0.03,0.0307,0.0314,0.0308,0.0308,0.0309,0.0314,0.0323,0.0324,0.0336,0.0324,0.0325,0.0325,0.0325,0.0356,0.0356,0,0,0,0,0,0,0.027,0.0279,0.0293,0.0294,0.028,0.0298,0.03,0.0303,0.0314,0.0315,0.0309,0.0309,0.0322,0.0323,0.0324,0.0344,0.0325,0.0325,0.0326,0.0355,0.0356,0.0356,0,0,0,0,0,0,0.027,0.0271,0.0291,0.0286,0.0289,0.0299,0.0301,0.0303,0.0317,0.0315,0.0316,0.0321,0.0322,0.0323,0.0337,0.0344,0.0326,0.0326,0.0355,0.0356,0.0356,0.0381,0,0,0,0,0,0,0.0269,0.0271,0.0275,0.0285,0.0289,0.0305,0.0302,0.0304,0.0317,0.0317,0.0325,0.0325,0.0321,0.0336,0.0337,0.0344,0.0327,0.0354,0.0355,0.0356,0.038,0.0383,0.0385,0,0,0,0,0,0.0268,0.0279,0.0275,0.0277,0.0292,0.0305,0.0309,0.0315,0.0318,0.0326,0.0333,0.0325,0.0341,0.0337,0.0339,0.0346,0.0354,0.0355,0.0356,0.0379,0.0382,0.0385,0,0,0,0,0,0,0.0278,0.0281,0.0277,0.0288,0.0294,0.0306,0.032,0.0321,0.0335,0.0338,0.0336,0.0336,0.0351,0.0346,0.0341,0.0356,0.0344,0.0346,0.0361,0.0364,0.0367,0.037,0.0327,0,0,0,0,0,0.028,0.0286,0.0288,0.0298,0.0305,0.0314,0.0322,0.0323,0.0333,0.034,0.0343,0.0348,0.0356,0.0358,0.0364,0.0376,0.0352,0.0379,0.0382,0.0384,0.0388,0.0359,0.0359,0.036,0.036,0.036,0,0,0.0288,0.0288,0.0293,0.03,0.0311,0.0329,0.0319,0.0334,0.0348,0.0338,0.0363,0.036,0.0363,0.0375,0.038,0.0372,0.037,0.0385,0.0387,0.039,0.036,0.0359,0.0359,0.036,0.036,0.036,0,0,0.0309,0.0309,0.0323,0.0332,0.0341,0.0345,0.035,0.0361,0.0366,0.0385,0.038,0.038,0.0398,0.0393,0.0396,0.0416,0.0387,0.0418,0.0431,0.0403,0.0403,0.0402,0.0363,0.0359,0.0416,0.0416,0.0416,0,0.0318,0.0336,0.033,0.035,0.0366,0.0354,0.0381,0.0385,0.0396,0.0402,0.0396,0.0411,0.0407,0.0418,0.0423,0.0421,0.0398,0.042,0.0406,0.0405,0.0403,0.0364,0.0358,0.0417,0.0417,0.0417,0.0417,0,0.0352,0.037,0.0384,0.0402,0.0416,0.0437,0.044,0.0447,0.0449,0.0447,0.0457,0.0446,0.0453,0.0447,0.0444,0.0437,0.0419,0.0414,0.0396,0.0405,0.0362,0.0356,0.0419,0.0418,0.0418,0.0418,0,0,0.0367,0.0401,0.0407,0.0431,0.0448,0.0465,0.0484,0.0498,0.0513,0.0503,0.0519,0.0515,0.0497,0.0498,0.0481,0.0451,0.0416,0.0431,0.0429,0.039,0.0344,0.0313,0.0303,0.0408,0.0407,0.0406,0.0314,0,0.0398,0.0445,0.0453,0.0505,0.0534,0.0536,0.0558,0.0564,0.0561,0.0568,0.0539,0.055,0.052,0.0523,0.0487,0.0442,0.0404,0.0441,0.0345,0.0341,0.0311,0.0297,0.0405,0.031,0.0308,0.0307,0.0306,0,0.0432,0.0458,0.0513,0.0561,0.0576,0.0606,0.0638,0.0656,0.065,0.0647,0.0631,0.0607,0.0573,0.0545,0.0452,0.0478,0.0415,0.0367,0.0362,0.0322,0.03,0.0302,0.0295,0.0296,0.0297,0.0298,0.0298,0,0.0449,0.0504,0.055,0.0569,0.0615,0.0646,0.0675,0.0684,0.0708,0.0698,0.0704,0.065,0.0637,0.0548,0.0446,0.0451,0.0331,0.0325,0.0231,0.0228,0.0273,0.0275,0.0252,0.0252,0.0252,0.0252,0.0253,0,0.0479,0.0519,0.0568,0.0598,0.0662,0.0684,0.0745,0.0757,0.0775,0.0803,0.0752,0.0748,0.0638,0.0557,0.0455,0.032,0.0334,0.0227,0.0202,0.0284,0.0289,0.0267,0.027,0.0249,0.025,0.025,0.0251,0,0.0493,0.0522,0.0584,0.0647,0.0675,0.0726,0.0809,0.0843,0.0852,0.0884,0.0886,0.0824,0.0714,0.0582,0.0434,0.0339,0.021,0.0158,0.0246,0.0228,0.0121,0.0126,0.0043,0.0041,0.004,0.0038,0.0037,0,0.0501,0.0532,0.0623,0.0666,0.0704,0.0781,0.0834,0.0881,0.0917,0.0926,0.094,0.0853,0.0788,0.0552,0.0409,0.0192,0.0165,0.009,0.0109,0.0115,0.0099,0.0107,0.0115,0.0035,0.0034,0.0034,0.0034,0,0.0513,0.055,0.0604,0.0693,0.0766,0.0849,0.093,0.0962,0.1005,0.1011,0.0975,0.0856,0.0727,0.0546,0.0374,0.0223,0.0134,0.0073,0.0075,0.0093,0.0104,0.0092,0.0101,0.0028,0.0029,0.0029,0.003,0,0.0525,0.0565,0.0636,0.0718,0.0806,0.0891,0.0939,0.0983,0.1022,0.1026,0.101,0.0873,0.0799,0.0561,0.0405,0.0246,0.0208,0.0157,0.0154,0.0158,0.0217,0.025,0.0191,0,0,0,0,0,0.0529,0.0577,0.0651,0.0746,0.0832,0.089,0.0986,0.1021,0.106,0.1039,0.1027,0.0903,0.067,0.0575,0.041,0.0368,0.0176,0.0168,0.0115,-0.0002,0.0004,0.0051,0,0,0,0,0,0,0.0531,0.0602,0.0647,0.0749,0.0813,0.0918,0.0985,0.1017,0.1006,0.1013,0.0895,0.0843,0.0621,0.0756,0.0398,0.0352,0.0292,0.0065,0.0061,-0.0006,-0.0,0.0005,0.0055,0,0,0,0,0]}]]